[[{"header":{"parameterUnit":"m.s-1","parameterCategory":1,"la1":30.2991,"la2":30.254,"lo1":-89.0895,"lo2":-89.0444,"dy":0.0017,"dx":0.0017,"nx":28,"ny":28,"refTime":"2025-06-09T03:00:00:Z","depth":0,"parameterNumber":2,"parameterNumberName":"U-component_of_WINDS"},"data":[0,0,0,0,0,0,0,0,0,0,0,0,0,0,0,0,0,0,0,0,0,0,0,0,0,0,0,0,0,0,0,0,0,0,0,0,0,0,0,0,0,0,0,0,0,0,0,0,0,0,0,0,0,0,0,0,0,0,1.4087,1.4088,0,1.4157,1.4158,1.4159,1.4179,1.4179,1.4178,1.4178,1.4253,1.4255,1.4258,0,0,0,0,0,0,0,0,0,0,0,0,0,1.3976,1.3978,1.4087,1.4088,1.4089,1.4157,1.4158,1.4159,1.4179,1.4179,1.4178,1.4178,1.4252,1.4255,1.4258,0,0,0,0,0,0,0,0,0,0,0,0,0,1.4033,1.3979,1.4087,1.4107,1.411,1.4157,1.4158,1.4159,1.4179,1.4179,1.4178,1.4178,1.4251,1.4255,1.4258,1.4292,0,0,1.4269,1.427,0,0,0,0,0,0,0,0,1.403,1.4037,1.4103,1.4106,1.4109,1.4159,1.4146,1.4204,1.4179,1.4153,1.4178,1.4177,1.4222,1.4228,1.4243,1.4295,1.4298,1.4269,1.4271,1.4273,1.4274,0,0,0,0,0,0,0,1.4026,1.4034,1.4115,1.4104,1.4108,1.4114,1.4122,1.4157,1.419,1.4155,1.4157,1.4165,1.4224,1.4239,1.4245,1.4299,1.4269,1.4272,1.4274,1.4276,1.4387,1.4388,0,0,0,0,0,0,1.4018,1.4031,1.4113,1.4117,1.4067,1.4117,1.4125,1.4143,1.419,1.4196,1.4165,1.4165,1.4233,1.424,1.4247,1.4292,1.4273,1.4276,1.4278,1.4386,1.4387,1.4388,0,0,0,0,0,0,1.4015,1.4025,1.411,1.4075,1.4086,1.4119,1.414,1.4145,1.4161,1.4197,1.4204,1.4175,1.4233,1.4242,1.4281,1.4294,1.4278,1.4281,1.4385,1.4386,1.4387,1.4379,0,0,0,0,0,0,1.4012,1.4024,1.4035,1.4075,1.4088,1.4141,1.414,1.4147,1.4166,1.4167,1.4208,1.4214,1.4234,1.4276,1.4285,1.4299,1.4284,1.4384,1.4386,1.4387,1.4378,1.438,1.4381,0,0,0,0,0,1.4008,1.403,1.4036,1.4046,1.4102,1.4141,1.4149,1.417,1.4167,1.418,1.4204,1.4213,1.4292,1.4279,1.429,1.4305,1.4383,1.4385,1.4387,1.4377,1.4379,1.4381,0,0,0,0,0,0,1.3992,1.4035,1.4042,1.4077,1.4106,1.4145,1.4161,1.4171,1.4201,1.4201,1.4227,1.4236,1.4273,1.4293,1.4279,1.4342,1.4338,1.4342,1.4327,1.4329,1.4331,1.4325,1.4287,0,0,0,0,0,1.3992,1.4019,1.4056,1.4084,1.4098,1.4127,1.4145,1.4159,1.4189,1.4202,1.4228,1.4259,1.4291,1.4311,1.4342,1.4382,1.4392,1.4398,1.4399,1.44,1.4403,1.4428,1.4432,1.4394,1.4394,1.4394,0,0,1.3993,1.4021,1.4036,1.4081,1.4105,1.4134,1.4137,1.4166,1.4189,1.4206,1.4245,1.4266,1.4302,1.4341,1.436,1.4359,1.4416,1.4402,1.4403,1.4406,1.443,1.4434,1.4437,1.4395,1.4395,1.4395,0,0,1.4011,1.4033,1.406,1.4084,1.4119,1.4139,1.4146,1.4184,1.4199,1.4238,1.4252,1.428,1.4334,1.436,1.438,1.4411,1.4421,1.4421,1.4428,1.4452,1.4455,1.4458,1.4471,1.4475,1.4424,1.4424,1.4424,0,1.4008,1.405,1.4072,1.4102,1.4123,1.414,1.4169,1.4191,1.4236,1.4251,1.4249,1.4319,1.4344,1.4391,1.4399,1.4414,1.4424,1.4416,1.4453,1.4456,1.4459,1.4471,1.4476,1.4424,1.4424,1.4424,1.4424,0,1.4046,1.4076,1.4094,1.4136,1.4159,1.4188,1.4216,1.4237,1.425,1.4271,1.4312,1.4344,1.4383,1.4395,1.4408,1.4446,1.4444,1.4447,1.4444,1.4462,1.4474,1.4479,1.4423,1.4423,1.4423,1.4423,0,0,1.4052,1.4109,1.4115,1.4136,1.4178,1.4202,1.4234,1.4272,1.429,1.4321,1.4349,1.4396,1.44,1.4423,1.444,1.446,1.4486,1.4462,1.4463,1.4466,1.4531,1.4529,1.4534,1.4493,1.4494,1.4494,1.4529,0,1.4076,1.4131,1.4153,1.4198,1.4228,1.4247,1.4275,1.4305,1.4326,1.4356,1.438,1.4413,1.4415,1.4429,1.4451,1.4478,1.4499,1.4476,1.4521,1.4522,1.4511,1.454,1.4537,1.4568,1.4533,1.4534,1.4535,0,1.4109,1.4141,1.4189,1.423,1.4244,1.4268,1.4306,1.4333,1.4369,1.4384,1.4411,1.4427,1.4463,1.4458,1.4509,1.4493,1.4513,1.453,1.4532,1.4537,1.4529,1.4547,1.4578,1.4582,1.4542,1.4542,1.4541,0,1.4111,1.4165,1.4202,1.4219,1.4268,1.4285,1.4306,1.4342,1.4364,1.4398,1.4414,1.4452,1.4473,1.4503,1.453,1.4523,1.458,1.4576,1.4595,1.4594,1.4605,1.4604,1.4641,1.4618,1.4618,1.4617,1.4617,0,1.4134,1.4163,1.4204,1.4226,1.426,1.4287,1.4321,1.4344,1.4376,1.4405,1.4425,1.4452,1.4485,1.4518,1.4539,1.458,1.4589,1.4604,1.4609,1.4602,1.46,1.4616,1.4614,1.4619,1.4618,1.4618,1.4618,0,1.4141,1.4169,1.421,1.4254,1.4266,1.4289,1.4328,1.4352,1.4375,1.4412,1.4422,1.446,1.4499,1.4529,1.458,1.4595,1.4639,1.4644,1.4626,1.4629,1.4646,1.4644,1.4694,1.4702,1.4673,1.4673,1.4673,0,1.4154,1.4177,1.4224,1.4244,1.4266,1.4298,1.4322,1.4351,1.4375,1.4419,1.4439,1.4479,1.4513,1.4576,1.4608,1.4649,1.4656,1.467,1.4662,1.4655,1.4657,1.4656,1.4659,1.4671,1.4671,1.4672,1.4672,0,1.4174,1.4188,1.422,1.4259,1.4286,1.4318,1.435,1.4366,1.4402,1.4428,1.4468,1.4495,1.4548,1.4589,1.4633,1.4657,1.4671,1.4674,1.4681,1.4674,1.4663,1.4671,1.463,1.4673,1.4673,1.4673,1.4673,1.4673,1.4185,1.4208,1.4245,1.4282,1.4309,1.434,1.4365,1.4392,1.4426,1.4471,1.4487,1.4529,1.4568,1.4629,1.4654,1.4689,1.4689,1.4698,1.4701,1.4703,1.4703,1.4658,1.4697,1.4697,1.4697,1.4697,1.4697,0,1.4208,1.4234,1.4267,1.4312,1.4342,1.4352,1.4389,1.4414,1.445,1.4485,1.4519,1.4567,1.4608,1.4645,1.4688,1.4709,1.4717,1.4719,1.4718,1.4724,1.4699,1.469,1.4713,1.4713,1.4713,1.4713,1.4713,1.4713,1.4223,1.4262,1.4281,1.4336,1.4361,1.4402,1.4423,1.4453,1.4481,1.4533,1.4567,1.4591,1.4628,1.4674,1.4713,1.4723,1.4739,1.474,1.4752,1.4728,1.4726,1.4724,1.4715,1.4743,1.4743,1.4774,1.4774,1.4775]},{"header":{"parameterUnit":"m.s-1","parameterCategory":1,"la1":30.2991,"la2":30.254,"lo1":-89.0895,"lo2":-89.0444,"dy":0.0017,"dx":0.0017,"nx":28,"ny":28,"refTime":"2025-06-09T03:00:00:Z","depth":0,"parameterNumber":3,"parameterNumberName":"V-component_of_WINDS"},"data":[0,0,0,0,0,0,0,0,0,0,0,0,0,0,0,0,0,0,0,0,0,0,0,0,0,0,0,0,0,0,0,0,0,0,0,0,0,0,0,0,0,0,0,0,0,0,0,0,0,0,0,0,0,0,0,0,0,0,6.8646,6.8647,0,6.8792,6.8793,6.8795,6.8811,6.8809,6.8808,6.8807,6.8945,6.8949,6.8954,0,0,0,0,0,0,0,0,0,0,0,0,0,6.837,6.8375,6.8646,6.8648,6.8649,6.8792,6.8794,6.8796,6.8811,6.8809,6.8808,6.8806,6.8943,6.8949,6.8955,0,0,0,0,0,0,0,0,0,0,0,0,0,6.85,6.8376,6.8645,6.8675,6.8679,6.8791,6.8794,6.8796,6.8812,6.8809,6.8807,6.8805,6.8941,6.8948,6.8956,6.9045,0,0,6.8979,6.8982,0,0,0,0,0,0,0,0,6.8492,6.851,6.8668,6.8673,6.8678,6.8781,6.8747,6.8879,6.8812,6.8761,6.8807,6.8804,6.8891,6.8903,6.8934,6.9052,6.9058,6.8979,6.8984,6.8987,6.8989,0,0,0,0,0,0,0,6.8483,6.8504,6.8703,6.8671,6.8676,6.8677,6.8693,6.8772,6.8836,6.8765,6.8767,6.8784,6.8893,6.8927,6.8938,6.906,6.8979,6.8986,6.899,6.8993,6.9259,6.9261,0,0,0,0,0,0,6.847,6.8496,6.8698,6.8708,6.8578,6.8684,6.8702,6.875,6.8835,6.8846,6.8786,6.8784,6.8915,6.8929,6.8943,6.9054,6.8987,6.8994,6.8998,6.9256,6.9259,6.9262,0,0,0,0,0,0,6.8465,6.8488,6.8693,6.8602,6.8629,6.8691,6.8745,6.8754,6.8788,6.8851,6.8861,6.881,6.8914,6.8932,6.9021,6.9059,6.8998,6.9004,6.9253,6.9257,6.926,6.9277,0,0,0,0,0,0,6.8457,6.8486,6.8523,6.8603,6.8633,6.8772,6.8747,6.8758,6.8802,6.8802,6.8876,6.8886,6.8914,6.9009,6.9028,6.9068,6.901,6.925,6.9255,6.9259,6.9274,6.9281,6.9288,0,0,0,0,0,6.8447,6.852,6.8525,6.855,6.8682,6.8774,6.879,6.8824,6.8806,6.8842,6.8882,6.8884,6.9052,6.9018,6.904,6.9083,6.9247,6.9253,6.9259,6.9271,6.928,6.9288,0,0,0,0,0,0,6.8438,6.853,6.8538,6.864,6.8699,6.8776,6.8823,6.8833,6.8896,6.8892,6.8927,6.8944,6.9031,6.9065,6.9027,6.9174,6.9147,6.9158,6.9149,6.9158,6.9165,6.9155,6.9016,0,0,0,0,0,6.8449,6.8519,6.8595,6.8677,6.8707,6.876,6.8801,6.8823,6.8884,6.8908,6.8955,6.9012,6.9077,6.912,6.9183,6.9279,6.9294,6.9319,6.9326,6.9331,6.9339,6.9393,6.9404,6.928,6.928,6.928,0,0,6.847,6.8529,6.8571,6.8677,6.8726,6.8795,6.8781,6.8854,6.8906,6.8918,6.9006,6.9042,6.9108,6.9201,6.9243,6.9232,6.9377,6.9338,6.9342,6.9348,6.94,6.9411,6.9422,6.9284,6.9284,6.9283,0,0,6.8544,6.8597,6.8672,6.8722,6.8798,6.8833,6.8851,6.8928,6.8954,6.9044,6.9055,6.9114,6.9226,6.9273,6.9311,6.9405,6.9408,6.9424,6.9461,6.9512,6.9522,6.9531,6.9565,6.9576,6.9432,6.9432,6.9432,0,6.856,6.8669,6.8708,6.8784,6.8829,6.8848,6.8923,6.8968,6.9058,6.9088,6.9074,6.9218,6.9262,6.9367,6.939,6.942,6.944,6.9416,6.9518,6.9528,6.9536,6.9569,6.9581,6.9434,6.9434,6.9433,6.9433,0,6.8685,6.876,6.8811,6.8904,6.8955,6.9029,6.9076,6.9123,6.914,6.9175,6.9265,6.9321,6.9397,6.9423,6.9438,6.9529,6.952,6.9512,6.9486,6.9549,6.958,6.9593,6.9436,6.9435,6.9435,6.9435,0,0,6.8757,6.8873,6.8891,6.8934,6.9019,6.9076,6.915,6.9229,6.9268,6.9329,6.9391,6.9487,6.9481,6.9524,6.9545,6.959,6.9661,6.9577,6.9578,6.9591,6.9765,6.9771,6.9785,6.9664,6.9667,6.9669,6.976,0,6.8842,6.898,6.9018,6.9133,6.9202,6.9222,6.9286,6.9343,6.9379,6.944,6.9476,6.9544,6.9531,6.9558,6.9603,6.9643,6.9697,6.9637,6.972,6.9722,6.9704,6.9801,6.9807,6.9891,6.9772,6.9774,6.9776,0,6.896,6.9029,6.9153,6.9231,6.9262,6.9319,6.9395,6.9454,6.9519,6.9541,6.9591,6.9608,6.9682,6.9653,6.9755,6.9714,6.975,6.9774,6.9778,6.9787,6.9753,6.9813,6.9918,6.9931,6.9795,6.9794,6.9792,0,6.9001,6.9125,6.9215,6.9251,6.9344,6.9384,6.9424,6.9488,6.9533,6.9597,6.9626,6.9697,6.9735,6.9788,6.9822,6.9797,6.9922,6.9895,6.9941,6.994,6.9966,6.9964,7.0079,6.9988,6.9988,6.9988,6.9988,0,6.9092,6.9167,6.9236,6.9291,6.9375,6.9416,6.9496,6.9536,6.9592,6.9653,6.9672,6.9728,6.977,6.9831,6.9858,6.9939,6.9955,6.9974,6.998,6.9973,6.9971,6.9997,6.9992,6.9991,6.9991,6.999,6.9989,0,6.9152,6.9202,6.9302,6.9383,6.9405,6.9463,6.9531,6.9584,6.9621,6.9698,6.9718,6.9774,6.9847,6.9887,6.9976,6.9994,7.0085,7.0088,7.0065,7.0067,7.0111,7.0107,7.0247,7.0267,7.0163,7.0164,7.0165,0,6.9208,6.9267,6.9356,6.9401,6.9443,6.9514,6.9561,6.9603,6.9651,6.973,6.9773,6.9848,6.9911,7.0026,7.0072,7.0141,7.0145,7.019,7.0155,7.0146,7.0146,7.0143,7.0149,7.0195,7.0196,7.0197,7.0198,0,6.9301,6.9323,6.9393,6.9472,6.953,6.9593,6.9654,6.9689,6.974,6.9792,6.987,6.9919,7.0013,7.0087,7.016,7.0196,7.0205,7.0209,7.0223,7.0216,7.0201,7.021,7.0081,7.0205,7.0204,7.0204,7.0203,7.0203,6.936,6.9414,6.9487,6.9564,6.9616,6.9674,6.9729,6.9774,6.9841,6.9924,6.9943,7.0024,7.0087,7.0187,7.0226,7.0288,7.0279,7.0299,7.0305,7.0309,7.0311,7.0191,7.0301,7.0301,7.03,7.03,7.03,0,6.9455,6.9503,6.9575,6.9663,6.9724,6.9731,6.98,6.9849,6.9922,6.9982,7.0045,7.0133,7.0205,7.0258,7.033,7.037,7.0375,7.0387,7.0385,7.0393,7.0315,7.0296,7.0382,7.0382,7.0382,7.0381,7.0381,7.0381,6.9512,6.9604,6.9634,6.9751,6.9797,6.9881,6.992,6.9973,7.0021,7.0121,7.0183,7.0218,7.0275,7.0352,7.0417,7.043,7.0456,7.0468,7.0481,7.0407,7.0398,7.039,7.0372,7.0473,7.0473,7.0554,7.0555,7.0556]}]]